Weather History for KMSN - May, 2014

Change the Weather History Date:

Thursday, May 15, 2014

  Actual Average Record
Temperature  
Mean Temperature 49 °F 57 °F  
Max Temperature 57 °F 68 °F 86 °F (1977)
Min Temperature 40 °F 46 °F 30 °F (1983)
Degree Days  
Heating Degree Days 16 9  
Month to date heating degree days 146 160  
Since 1 July heating degree days 7986 7167  
Cooling Degree Days 0 1  
Month to date cooling degree days 9 5  
Year to date cooling degree days 9 9  
Moisture  
Dew Point 35 °F    
Average Humidity 62    
Maximum Humidity 85    
Minimum Humidity 38    
Precipitation  
Precipitation 0.08 in 0.10 in 1.39 in (1933)
Month to date precipitation 1.44 1.63  
Year to date precipitation 9.72 9.91  
Snow  
Snow 0.00 in 0.00 in T in (1997)
Month to date snowfall 0.0 0.2  
Since 1 July snowfall 59.2 50.9  
Snow Depth 0.00 in    
Sea Level Pressure  
Sea Level Pressure 30.03 in    
Wind  
Wind Speed 9 mph (NNE)    
Max Wind Speed 22 mph    
Max Gust Speed 28 mph    
Visibility 9 miles    
Events Rain    
T = Trace of Precipitation, MM = Missing Value Source: NWS Daily Summary

Daily Weather History Graph

Daily Weather History Graph

Search for Another Location

Airport or City:

Trip Planner

Search our weather history database for the weather conditions in past years. The results will help you decide how hot, cold, wet, or windy it might be!

Date:

Astronomy

May. 15, 2014 Rise Set
Actual Time 5:33 AM CDT 8:14 PM CDT
Civil Twilight 5:01 AM CDT 8:47 PM CDT
Nautical Twilight 4:19 AM CDT 9:28 PM CDT
Astronomical Twilight 3:33 AM CDT 10:15 PM CDT
Moon 9:22 PM CDT (5/15) 6:21 AM CDT (5/15)
Length of Visible Light 15h 46m
Length of Day
14h 40m
Full, 99% of the Moon is Illuminated
May 15
Full
May 21
Last Quarter
May 28
New
Jun 5
First Quarter
Jun 12
Full

Hourly Weather History & Observations

Time (CDT) Temp. Windchill Dew Point Humidity Pressure Visibility Wind Dir Wind Speed Gust Speed Precip Events Conditions
12:53 AM 48.9 °F - 37.9 °F 66% 30.04 in 10.0 mi Variable 5.8 mph - N/A   Overcast
1:53 AM 50.0 °F - 36.0 °F 59% 30.02 in 10.0 mi NE 10.4 mph - N/A   Overcast
2:53 AM 48.0 °F - 34.0 °F 58% 30.02 in 10.0 mi NE 17.3 mph 23.0 mph N/A   Overcast
3:53 AM 46.0 °F 41.0 °F 33.1 °F 61% 30.03 in 10.0 mi NNE 10.4 mph - 0.00 in Rain Light Rain
4:53 AM 43.0 °F 36.8 °F 35.1 °F 74% 30.04 in - NE 11.5 mph - 0.01 in Rain Light Rain
5:43 AM 42.1 °F 35.7 °F 36.0 °F 79% 30.03 in - NNE 11.5 mph - 0.01 in Rain Light Rain
5:53 AM 41.0 °F 34.3 °F 36.0 °F 82% 30.04 in 7.0 mi NNE 11.5 mph - 0.01 in Rain Light Rain
6:53 AM 39.9 °F 33.4 °F 36.0 °F 86% 30.05 in 6.0 mi NE 10.4 mph - 0.04 in Rain Light Rain
7:14 AM 39.9 °F 33.9 °F 36.0 °F 86% 30.03 in 7.0 mi NNE 9.2 mph - 0.00 in Rain Light Rain
7:31 AM 39.9 °F 33.4 °F 36.0 °F 86% 30.03 in 7.0 mi NE 10.4 mph - 0.01 in Rain Light Rain
7:53 AM 39.9 °F 32.9 °F 36.0 °F 86% 30.04 in 6.0 mi ENE 11.5 mph - 0.02 in Rain Light Rain
8:16 AM 41.0 °F 36.4 °F 37.0 °F 86% 30.04 in 8.0 mi North 6.9 mph - 0.00 in   Overcast
8:53 AM 42.1 °F 35.7 °F 37.0 °F 82% 30.06 in 10.0 mi NNE 11.5 mph - 0.00 in   Overcast
9:53 AM 44.1 °F 38.6 °F 37.0 °F 76% 30.04 in 10.0 mi North 10.4 mph - N/A   Overcast
10:53 AM 45.0 °F 41.8 °F 37.9 °F 76% 30.04 in 10.0 mi NNW 5.8 mph - N/A   Overcast
11:53 AM 50.0 °F - 39.0 °F 66% 30.03 in 10.0 mi NW 11.5 mph - N/A   Mostly Cloudy
12:02 PM 50.0 °F - 37.9 °F 63% 30.01 in 10.0 mi WNW 10.4 mph - N/A   Mostly Cloudy
12:53 PM 52.0 °F - 36.0 °F 54% 30.01 in 10.0 mi North 6.9 mph - N/A   Mostly Cloudy
2:53 PM 54.0 °F - 33.1 °F 45% 29.99 in 10.0 mi NNW 8.1 mph - N/A   Mostly Cloudy
3:53 PM 53.1 °F - 32.0 °F 45% 29.99 in 10.0 mi WNW 5.8 mph - N/A   Mostly Cloudy
4:53 PM 55.9 °F - 30.0 °F 37% 29.99 in 10.0 mi NW 10.4 mph - N/A   Mostly Cloudy
5:53 PM 54.0 °F - 30.0 °F 40% 29.99 in 10.0 mi NNW 9.2 mph - N/A   Mostly Cloudy
6:53 PM 53.1 °F - 30.0 °F 41% 30.01 in 10.0 mi North 8.1 mph - N/A   Mostly Cloudy
7:53 PM 51.1 °F - 30.0 °F 44% 30.02 in 10.0 mi North 5.8 mph - N/A   Mostly Cloudy
8:53 PM 48.9 °F - 36.0 °F 61% 30.04 in 10.0 mi NE 6.9 mph - N/A   Mostly Cloudy
9:53 PM 46.9 °F - 36.0 °F 66% 30.04 in 10.0 mi ENE 4.6 mph - N/A   Mostly Cloudy
10:53 PM 46.9 °F - 37.0 °F 68% 30.06 in 10.0 mi ESE 9.2 mph - N/A   Mostly Cloudy
11:53 PM 44.1 °F 39.0 °F 34.0 °F 68% 30.06 in 10.0 mi SSE 9.2 mph - N/A   Overcast